Time,TemperatureF,DewpointF,PressureIn,WindDirection,WindDirectionDegrees,WindSpeedMPH,WindSpeedGustMPH,Humidity,HourlyPrecipIn,Conditions,Clouds,dailyrainin,SolarRadiationWatts/m^2,SoftwareType,DateUTC
2013-02-24 00:00:00,42.4,41.6,29.78,ENE,72,2.0,4.0,97,0.00,,,0.00,0,Wunderground v.1.15,2013-02-24 05:00:00,
2013-02-24 00:10:00,42.2,41.4,29.77,ENE,63,3.0,3.0,97,0.00,,,0.00,0,Wunderground v.1.15,2013-02-24 05:10:00,
2013-02-24 00:20:00,42.0,41.2,29.77,East,87,4.0,7.0,97,0.00,,,0.00,0,Wunderground v.1.15,2013-02-24 05:20:00,
2013-02-24 00:24:00,41.9,41.1,29.78,East,84,5.0,7.0,97,0.00,,,0.00,0,Wunderground v.1.15,2013-02-24 05:24:00,
2013-02-24 00:30:00,41.9,41.1,29.78,ENE,58,5.0,5.0,97,0.00,,,0.00,0,Wunderground v.1.15,2013-02-24 05:30:00,
2013-02-24 00:35:00,41.8,41.0,29.78,ENE,76,4.0,5.0,97,0.00,,,0.00,0,Wunderground v.1.15,2013-02-24 05:35:00,
2013-02-24 00:45:00,41.8,41.0,29.78,ENE,77,4.0,7.0,97,0.00,,,0.00,0,Wunderground v.1.15,2013-02-24 05:45:00,
2013-02-24 00:50:00,41.7,40.9,29.78,East,84,4.0,5.0,97,0.00,,,0.00,0,Wunderground v.1.15,2013-02-24 05:50:00,
2013-02-24 01:00:00,41.8,41.0,29.78,ENE,73,3.0,3.0,97,0.00,,,0.00,0,Wunderground v.1.15,2013-02-24 06:00:00,
2013-02-24 01:10:00,41.8,41.0,29.79,ENE,64,3.0,3.0,97,0.00,,,0.00,0,Wunderground v.1.15,2013-02-24 06:10:00,
2013-02-24 01:15:00,41.7,40.9,29.79,ENE,63,4.0,4.0,97,0.00,,,0.00,0,Wunderground v.1.15,2013-02-24 06:15:00,
2013-02-24 01:25:00,41.6,40.8,29.80,ENE,59,4.0,8.0,97,0.00,,,0.00,0,Wunderground v.1.15,2013-02-24 06:25:00,
2013-02-24 01:35:00,41.5,40.7,29.80,NE,55,4.0,5.0,97,0.00,,,0.00,0,Wunderground v.1.15,2013-02-24 06:35:00,
2013-02-24 01:44:00,41.4,40.6,29.78,ENE,67,3.0,4.0,97,0.00,,,0.00,0,Wunderground v.1.15,2013-02-24 06:44:00,
2013-02-24 01:55:00,41.2,40.4,29.77,ENE,75,6.0,6.0,97,0.00,,,0.00,0,Wunderground v.1.15,2013-02-24 06:55:00,
2013-02-24 02:00:00,41.1,40.3,29.77,East,95,5.0,10.0,97,0.00,,,0.00,0,Wunderground v.1.15,2013-02-24 07:00:00,
2013-02-24 02:10:00,41.0,40.2,29.77,East,88,5.0,9.0,97,0.00,,,0.01,0,Wunderground v.1.15,2013-02-24 07:10:00,
2013-02-24 02:15:00,41.0,40.2,29.77,East,80,5.0,11.0,97,0.00,,,0.01,0,Wunderground v.1.15,2013-02-24 07:15:00,
2013-02-24 02:25:00,41.0,40.2,29.77,East,97,6.0,7.0,97,0.00,,,0.01,0,Wunderground v.1.15,2013-02-24 07:25:00,
2013-02-24 02:30:00,40.9,40.1,29.77,East,88,5.0,5.0,97,0.00,,,0.01,0,Wunderground v.1.15,2013-02-24 07:30:00,
2013-02-24 02:40:00,40.8,40.0,29.77,ENE,59,4.0,4.0,97,0.00,,,0.01,0,Wunderground v.1.15,2013-02-24 07:40:00,
2013-02-24 02:50:00,40.7,39.9,29.77,NE,53,3.0,4.0,97,0.00,,,0.01,0,Wunderground v.1.15,2013-02-24 07:50:00,
2013-02-24 02:55:00,40.6,39.8,29.77,ENE,78,3.0,9.0,97,0.00,,,0.01,0,Wunderground v.1.15,2013-02-24 07:55:00,
2013-02-24 03:00:00,40.5,39.7,29.76,ENE,67,4.0,4.0,97,0.00,,,0.01,0,Wunderground v.1.15,2013-02-24 08:00:00,
2013-02-24 03:10:00,40.4,39.6,29.76,East,88,7.0,7.0,97,0.00,,,0.01,0,Wunderground v.1.15,2013-02-24 08:10:00,
2013-02-24 03:20:00,40.3,39.5,29.76,East,95,4.0,10.0,97,0.00,,,0.01,0,Wunderground v.1.15,2013-02-24 08:20:00,
2013-02-24 03:30:00,40.1,39.3,29.77,NE,56,4.0,5.0,97,0.00,,,0.01,0,Wunderground v.1.15,2013-02-24 08:30:00,
2013-02-24 03:40:00,40.1,39.3,29.77,East,80,5.0,6.0,97,0.00,,,0.01,0,Wunderground v.1.15,2013-02-24 08:40:00,
2013-02-24 03:50:00,40.0,39.2,29.77,ENE,78,5.0,5.0,97,0.00,,,0.01,0,Wunderground v.1.15,2013-02-24 08:50:00,
2013-02-24 03:55:00,40.0,39.2,29.77,East,82,6.0,6.0,97,0.00,,,0.01,0,Wunderground v.1.15,2013-02-24 08:55:00,
2013-02-24 04:00:00,40.0,39.2,29.77,ENE,78,6.0,6.0,97,0.00,,,0.01,0,Wunderground v.1.15,2013-02-24 09:00:00,
2013-02-24 04:10:00,39.9,39.1,29.77,East,82,5.0,11.0,97,0.00,,,0.01,0,Wunderground v.1.15,2013-02-24 09:10:00,
2013-02-24 04:19:00,39.8,39.0,29.77,ENE,74,6.0,8.0,97,0.00,,,0.01,0,Wunderground v.1.15,2013-02-24 09:19:00,
2013-02-24 04:25:00,39.8,39.0,29.78,ENE,65,5.0,9.0,97,0.00,,,0.01,0,Wunderground v.1.15,2013-02-24 09:25:00,
2013-02-24 04:35:00,39.7,38.9,29.78,ENE,61,3.0,4.0,97,0.00,,,0.01,0,Wunderground v.1.15,2013-02-24 09:35:00,
2013-02-24 04:45:00,39.5,38.7,29.78,East,90,4.0,8.0,97,0.00,,,0.01,0,Wunderground v.1.15,2013-02-24 09:45:00,
2013-02-24 04:55:00,39.4,38.6,29.79,East,88,3.0,4.0,97,0.00,,,0.01,0,Wunderground v.1.15,2013-02-24 09:55:00,
2013-02-24 05:00:00,39.4,38.6,29.79,East,88,1.0,1.0,97,0.00,,,0.01,0,Wunderground v.1.15,2013-02-24 10:00:00,
2013-02-24 05:09:00,39.4,38.6,29.78,East,88,1.0,1.0,97,0.00,,,0.01,0,Wunderground v.1.15,2013-02-24 10:09:00,
2013-02-24 05:15:00,39.4,38.6,29.78,East,87,2.0,6.0,97,0.00,,,0.01,0,Wunderground v.1.15,2013-02-24 10:15:00,
2013-02-24 05:25:00,39.4,38.6,29.78,ENE,69,3.0,11.0,97,0.00,,,0.01,0,Wunderground v.1.15,2013-02-24 10:25:00,
2013-02-24 05:35:00,39.3,38.5,29.78,ENE,76,4.0,4.0,97,0.00,,,0.01,0,Wunderground v.1.15,2013-02-24 10:35:00,
2013-02-24 05:45:00,39.3,38.5,29.77,East,98,4.0,5.0,97,0.00,,,0.01,0,Wunderground v.1.15,2013-02-24 10:45:00,
2013-02-24 05:55:00,39.3,38.5,29.77,ENE,74,4.0,5.0,97,0.00,,,0.01,0,Wunderground v.1.15,2013-02-24 10:55:00,
2013-02-24 06:00:00,39.3,38.5,29.78,East,85,5.0,5.0,97,0.00,,,0.01,0,Wunderground v.1.15,2013-02-24 11:00:00,
2013-02-24 06:10:00,39.2,38.4,29.77,ENE,61,4.0,4.0,97,0.00,,,0.01,0,Wunderground v.1.15,2013-02-24 11:10:00,
2013-02-24 06:15:00,39.1,38.3,29.78,ENE,78,5.0,9.0,97,0.00,,,0.01,0,Wunderground v.1.15,2013-02-24 11:15:00,
2013-02-24 06:25:00,39.1,38.3,29.79,East,79,6.0,6.0,97,0.00,,,0.01,0,Wunderground v.1.15,2013-02-24 11:25:00,
2013-02-24 06:34:00,39.1,38.3,29.79,ENE,70,3.0,5.0,97,0.00,,,0.01,0,Wunderground v.1.15,2013-02-24 11:34:00,
2013-02-24 06:40:00,39.1,38.3,29.79,ENE,67,4.0,4.0,97,0.00,,,0.01,0,Wunderground v.1.15,2013-02-24 11:40:00,
2013-02-24 06:49:00,39.1,38.3,29.81,NE,46,3.0,3.0,97,0.00,,,0.01,0,Wunderground v.1.15,2013-02-24 11:49:00,
2013-02-24 06:55:00,39.2,38.4,29.81,ENE,59,5.0,5.0,97,0.00,,,0.01,0,Wunderground v.1.15,2013-02-24 11:55:00,
2013-02-24 07:00:00,39.2,38.4,29.81,NE,48,5.0,8.0,97,0.00,,,0.01,5,Wunderground v.1.15,2013-02-24 12:00:00,
2013-02-24 07:10:00,39.2,38.4,29.82,ENE,76,6.0,11.0,97,0.00,,,0.01,7,Wunderground v.1.15,2013-02-24 12:10:00,
2013-02-24 07:19:00,39.2,38.4,29.82,ENE,69,6.0,6.0,97,0.00,,,0.01,9,Wunderground v.1.15,2013-02-24 12:19:00,
2013-02-24 07:25:00,39.3,38.5,29.83,NE,55,6.0,6.0,97,0.00,,,0.01,12,Wunderground v.1.15,2013-02-24 12:25:00,
2013-02-24 07:35:00,39.3,38.5,29.83,NE,45,6.0,7.0,97,0.00,,,0.01,16,Wunderground v.1.15,2013-02-24 12:35:00,
2013-02-24 07:45:00,39.3,38.5,29.84,NE,40,6.0,6.0,97,0.00,,,0.01,19,Wunderground v.1.15,2013-02-24 12:45:00,
2013-02-24 07:55:00,39.4,38.6,29.85,NE,45,5.0,6.0,97,0.00,,,0.01,23,Wunderground v.1.15,2013-02-24 12:55:00,
2013-02-24 08:00:00,39.5,38.7,29.85,NE,54,4.0,4.0,97,0.00,,,0.01,19,Wunderground v.1.15,2013-02-24 13:00:00,
2013-02-24 08:10:00,39.7,38.9,29.85,NE,35,4.0,4.0,97,0.00,,,0.01,51,Wunderground v.1.15,2013-02-24 13:10:00,
2013-02-24 08:19:00,40.0,39.2,29.85,NNE,30,3.0,6.0,97,0.00,,,0.01,116,Wunderground v.1.15,2013-02-24 13:19:00,
2013-02-24 08:25:00,40.2,39.4,29.85,NNE,32,3.0,6.0,97,0.00,,,0.01,95,Wunderground v.1.15,2013-02-24 13:25:00,
2013-02-24 08:35:00,40.4,39.6,29.85,NNE,32,3.0,4.0,97,0.00,,,0.01,53,Wunderground v.1.15,2013-02-24 13:35:00,
2013-02-24 08:44:00,40.5,39.7,29.85,NNE,30,3.0,3.0,97,0.00,,,0.01,47,Wunderground v.1.15,2013-02-24 13:44:00,
2013-02-24 08:49:00,40.5,39.7,29.84,NNE,30,3.0,3.0,97,0.00,,,0.01,35,Wunderground v.1.15,2013-02-24 13:49:00,
2013-02-24 08:55:00,40.5,39.7,29.84,NNE,30,2.0,3.0,97,0.00,,,0.01,28,Wunderground v.1.15,2013-02-24 13:55:00,
2013-02-24 09:00:00,40.6,39.8,29.84,NNE,30,1.0,2.0,97,0.00,,,0.01,70,Wunderground v.1.15,2013-02-24 14:00:00,
2013-02-24 09:10:00,40.8,40.0,29.84,NNE,30,2.0,2.0,97,0.00,,,0.01,139,Wunderground v.1.15,2013-02-24 14:10:00,
2013-02-24 09:19:00,41.1,40.3,29.85,NE,45,5.0,5.0,97,0.00,,,0.01,97,Wunderground v.1.15,2013-02-24 14:19:00,
2013-02-24 09:25:00,41.1,40.3,29.85,ENE,57,6.0,7.0,97,0.00,,,0.01,137,Wunderground v.1.15,2013-02-24 14:25:00,
2013-02-24 09:35:00,41.3,40.5,29.84,ENE,59,7.0,7.0,97,0.00,,,0.01,246,Wunderground v.1.15,2013-02-24 14:35:00,
2013-02-24 09:45:00,42.3,41.8,29.83,NE,54,6.0,12.0,98,0.00,,,0.01,480,Wunderground v.1.15,2013-02-24 14:45:00,
2013-02-24 09:55:00,43.1,42.3,29.83,ENE,69,6.0,7.0,97,0.00,,,0.01,304,Wunderground v.1.15,2013-02-24 14:55:00,
2013-02-24 10:00:00,43.3,42.5,29.83,NNE,30,6.0,7.0,97,0.00,,,0.01,127,Wunderground v.1.15,2013-02-24 15:00:00,
2013-02-24 10:10:00,43.5,42.7,29.83,NNE,30,6.0,6.0,97,0.00,,,0.01,506,Wunderground v.1.15,2013-02-24 15:10:00,
2013-02-24 10:20:00,44.3,43.2,29.84,NE,35,6.0,6.0,96,0.00,,,0.01,533,Wunderground v.1.15,2013-02-24 15:20:00,
2013-02-24 10:29:00,44.7,43.1,29.85,NE,36,8.0,8.0,94,0.00,,,0.01,554,Wunderground v.1.15,2013-02-24 15:29:00,
2013-02-24 10:35:00,45.6,43.7,29.85,NNE,24,7.0,10.0,93,0.00,,,0.01,591,Wunderground v.1.15,2013-02-24 15:35:00,
2013-02-24 10:45:00,46.2,43.7,29.84,NNE,22,7.0,13.0,91,0.00,,,0.01,612,Wunderground v.1.15,2013-02-24 15:45:00,
2013-02-24 10:54:00,46.7,43.6,29.85,NE,45,7.0,8.0,89,0.00,,,0.01,605,Wunderground v.1.15,2013-02-24 15:54:00,
2013-02-24 11:00:00,47.2,44.1,29.85,ENE,61,8.0,18.0,89,0.00,,,0.01,728,Wunderground v.1.15,2013-02-24 16:00:00,
2013-02-24 11:10:00,47.7,43.7,29.85,ENE,65,8.0,8.0,86,0.00,,,0.01,733,Wunderground v.1.15,2013-02-24 16:10:00,
2013-02-24 11:20:00,48.1,42.5,29.85,ENE,69,7.0,7.0,81,0.00,,,0.01,181,Wunderground v.1.15,2013-02-24 16:20:00,
2013-02-24 11:29:00,48.2,42.0,29.85,ESE,119,7.0,7.0,79,0.00,,,0.01,220,Wunderground v.1.15,2013-02-24 16:29:00,
2013-02-24 11:35:00,48.2,42.3,29.85,NE,46,8.0,11.0,80,0.00,,,0.01,733,Wunderground v.1.15,2013-02-24 16:35:00,
2013-02-24 11:45:00,48.1,40.9,29.84,NNE,13,11.0,11.0,76,0.00,,,0.01,696,Wunderground v.1.15,2013-02-24 16:45:00,
2013-02-24 11:55:00,48.5,41.3,29.84,East,89,8.0,9.0,76,0.00,,,0.01,255,Wunderground v.1.15,2013-02-24 16:55:00,
2013-02-24 12:00:00,48.7,41.5,29.84,NE,44,7.0,8.0,76,0.00,,,0.01,745,Wunderground v.1.15,2013-02-24 17:00:00,
2013-02-24 12:09:00,48.7,41.1,29.83,ENE,77,7.0,7.0,75,0.00,,,0.01,810,Wunderground v.1.15,2013-02-24 17:09:00,
2013-02-24 12:15:00,48.8,40.5,29.83,NE,46,7.0,8.0,73,0.00,,,0.01,766,Wunderground v.1.15,2013-02-24 17:15:00,
2013-02-24 12:25:00,49.6,40.6,29.83,NE,54,9.0,20.0,71,0.00,,,0.01,856,Wunderground v.1.15,2013-02-24 17:25:00,
2013-02-24 12:35:00,48.7,40.4,29.83,East,87,8.0,8.0,73,0.00,,,0.01,294,Wunderground v.1.15,2013-02-24 17:35:00,
2013-02-24 12:45:00,48.4,39.8,29.83,ESE,106,7.0,9.0,72,0.00,,,0.01,283,Wunderground v.1.15,2013-02-24 17:45:00,
2013-02-24 12:55:00,48.8,39.8,29.82,ENE,71,7.0,12.0,71,0.00,,,0.01,165,Wunderground v.1.15,2013-02-24 17:55:00,
2013-02-24 13:00:00,48.6,38.9,29.83,East,83,8.0,10.0,69,0.00,,,0.01,174,Wunderground v.1.15,2013-02-24 18:00:00,
2013-02-24 13:10:00,48.2,38.5,29.82,NE,50,9.0,9.0,69,0.00,,,0.01,269,Wunderground v.1.15,2013-02-24 18:10:00,
2013-02-24 13:15:00,48.6,38.9,29.82,NE,54,8.0,9.0,69,0.00,,,0.01,288,Wunderground v.1.15,2013-02-24 18:15:00,
2013-02-24 13:20:00,48.7,38.6,29.82,NE,49,7.0,9.0,68,0.00,,,0.01,163,Wunderground v.1.15,2013-02-24 18:20:00,
2013-02-24 13:25:00,48.5,38.8,29.82,ENE,61,8.0,9.0,69,0.00,,,0.01,251,Wunderground v.1.15,2013-02-24 18:25:00,
2013-02-24 13:34:00,49.0,38.5,29.82,ENE,64,8.0,9.0,67,0.00,,,0.01,292,Wunderground v.1.15,2013-02-24 18:34:00,
2013-02-24 13:40:00,49.4,38.9,29.82,NNE,28,9.0,9.0,67,0.00,,,0.01,297,Wunderground v.1.15,2013-02-24 18:40:00,
2013-02-24 13:49:00,49.8,38.5,29.82,NE,49,8.0,8.0,65,0.00,,,0.01,336,Wunderground v.1.15,2013-02-24 18:49:00,
2013-02-24 13:55:00,50.0,38.7,29.82,ESE,104,8.0,8.0,65,0.00,,,0.01,137,Wunderground v.1.15,2013-02-24 18:55:00,
2013-02-24 14:00:00,48.6,37.7,29.82,East,92,8.0,8.0,66,0.00,,,0.01,169,Wunderground v.1.15,2013-02-24 19:00:00,
2013-02-24 14:10:00,48.3,38.6,29.81,East,84,7.0,7.0,69,0.00,,,0.01,671,Wunderground v.1.15,2013-02-24 19:10:00,
2013-02-24 14:19:00,49.0,38.5,29.82,ENE,74,6.0,9.0,67,0.00,,,0.01,206,Wunderground v.1.15,2013-02-24 19:19:00,
2013-02-24 14:25:00,48.8,38.3,29.82,East,81,5.0,9.0,67,0.00,,,0.01,146,Wunderground v.1.15,2013-02-24 19:25:00,
2013-02-24 14:35:00,47.8,37.7,29.82,ENE,76,6.0,6.0,68,0.00,,,0.01,91,Wunderground v.1.15,2013-02-24 19:35:00,
2013-02-24 14:45:00,47.3,37.6,29.82,ESE,123,5.0,7.0,69,0.00,,,0.01,128,Wunderground v.1.15,2013-02-24 19:45:00,
2013-02-24 14:55:00,47.2,37.9,29.82,ENE,75,5.0,7.0,70,0.00,,,0.01,598,Wunderground v.1.15,2013-02-24 19:55:00,
2013-02-24 15:00:00,48.8,38.7,29.82,NE,42,5.0,7.0,68,0.00,,,0.01,531,Wunderground v.1.15,2013-02-24 20:00:00,
2013-02-24 15:09:00,50.0,38.3,29.82,East,79,6.0,6.0,64,0.00,,,0.01,156,Wunderground v.1.15,2013-02-24 20:09:00,
2013-02-24 15:15:00,48.9,38.0,29.82,East,94,5.0,6.0,66,0.00,,,0.01,464,Wunderground v.1.15,2013-02-24 20:15:00,
2013-02-24 15:25:00,49.0,37.3,29.83,ENE,78,5.0,5.0,64,0.00,,,0.01,118,Wunderground v.1.15,2013-02-24 20:25:00,
2013-02-24 15:35:00,50.0,38.3,29.83,East,92,4.0,8.0,64,0.00,,,0.01,431,Wunderground v.1.15,2013-02-24 20:35:00,
2013-02-24 15:45:00,49.9,37.8,29.83,East,81,6.0,8.0,63,0.00,,,0.01,425,Wunderground v.1.15,2013-02-24 20:45:00,
2013-02-24 15:54:00,50.6,35.0,29.84,NE,48,7.0,12.0,55,0.00,,,0.01,397,Wunderground v.1.15,2013-02-24 20:54:00,
2013-02-24 16:00:00,51.2,33.2,29.84,NNE,24,8.0,13.0,50,0.00,,,0.01,281,Wunderground v.1.15,2013-02-24 21:00:00,
2013-02-24 16:10:00,51.0,31.5,29.84,North,360,13.0,13.0,47,0.00,,,0.01,316,Wunderground v.1.15,2013-02-24 21:10:00,
2013-02-24 16:20:00,50.9,30.8,29.84,North,5,10.0,14.0,46,0.00,,,0.01,323,Wunderground v.1.15,2013-02-24 21:20:00,
2013-02-24 16:30:00,50.4,30.4,29.85,NE,37,11.0,12.0,46,0.00,,,0.01,237,Wunderground v.1.15,2013-02-24 21:30:00,
2013-02-24 16:40:00,49.9,30.5,29.85,ENE,59,10.0,10.0,47,0.00,,,0.01,179,Wunderground v.1.15,2013-02-24 21:40:00,
2013-02-24 16:49:00,48.6,33.1,29.86,ENE,74,6.0,6.0,55,0.00,,,0.01,139,Wunderground v.1.15,2013-02-24 21:49:00,
2013-02-24 16:55:00,47.7,33.6,29.86,East,90,6.0,10.0,58,0.00,,,0.01,113,Wunderground v.1.15,2013-02-24 21:55:00,
2013-02-24 17:00:00,47.1,33.9,29.87,East,80,7.0,8.0,60,0.00,,,0.01,93,Wunderground v.1.15,2013-02-24 22:00:00,
2013-02-24 17:10:00,46.4,33.7,29.87,East,82,6.0,9.0,61,0.00,,,0.01,62,Wunderground v.1.15,2013-02-24 22:10:00,
2013-02-24 17:19:00,46.1,33.8,29.88,East,83,4.0,5.0,62,0.00,,,0.01,40,Wunderground v.1.15,2013-02-24 22:19:00,
2013-02-24 17:25:00,45.8,34.3,29.88,ESE,102,5.0,10.0,64,0.00,,,0.01,28,Wunderground v.1.15,2013-02-24 22:25:00,
2013-02-24 17:35:00,44.5,34.2,29.89,East,97,7.0,7.0,67,0.00,,,0.01,16,Wunderground v.1.15,2013-02-24 22:35:00,
2013-02-24 17:45:00,43.7,33.5,29.89,East,84,5.0,9.0,67,0.00,,,0.01,7,Wunderground v.1.15,2013-02-24 22:45:00,
2013-02-24 17:55:00,43.2,33.3,29.90,East,96,8.0,8.0,68,0.00,,,0.01,0,Wunderground v.1.15,2013-02-24 22:55:00,
2013-02-24 18:00:00,43.0,33.5,29.90,East,81,9.0,9.0,69,0.00,,,0.01,0,Wunderground v.1.15,2013-02-24 23:00:00,
2013-02-24 18:09:00,42.6,33.1,29.91,East,82,7.0,7.0,69,0.00,,,0.01,0,Wunderground v.1.15,2013-02-24 23:09:00,
2013-02-24 18:15:00,42.4,32.6,29.92,ENE,74,8.0,8.0,68,0.00,,,0.01,0,Wunderground v.1.15,2013-02-24 23:15:00,
2013-02-24 18:25:00,42.0,32.6,29.92,ENE,78,6.0,7.0,69,0.00,,,0.01,0,Wunderground v.1.15,2013-02-24 23:25:00,
2013-02-24 18:35:00,41.9,32.5,29.93,NE,44,6.0,6.0,69,0.00,,,0.01,0,Wunderground v.1.15,2013-02-24 23:35:00,
2013-02-24 18:45:00,42.3,31.7,29.93,East,92,9.0,9.0,66,0.00,,,0.01,0,Wunderground v.1.15,2013-02-24 23:45:00,
2013-02-24 18:55:00,42.4,30.3,29.94,NE,52,8.0,8.0,62,0.00,,,0.01,0,Wunderground v.1.15,2013-02-24 23:55:00,
2013-02-24 19:00:00,42.5,29.6,29.95,NE,56,9.0,9.0,60,0.00,,,0.01,0,Wunderground v.1.15,2013-02-25 00:00:00,
2013-02-24 19:09:00,42.3,29.4,29.95,ENE,69,8.0,8.0,60,0.00,,,0.01,0,Wunderground v.1.15,2013-02-25 00:09:00,
2013-02-24 19:15:00,42.1,30.0,29.96,ESE,111,7.0,10.0,62,0.00,,,0.01,0,Wunderground v.1.15,2013-02-25 00:15:00,
2013-02-24 19:25:00,41.4,30.5,29.97,East,95,8.0,13.0,65,0.00,,,0.01,0,Wunderground v.1.15,2013-02-25 00:25:00,
2013-02-24 19:35:00,40.5,30.4,29.98,ESE,102,10.0,10.0,67,0.00,,,0.01,0,Wunderground v.1.15,2013-02-25 00:35:00,
2013-02-24 19:44:00,40.0,29.9,29.98,ENE,63,10.0,16.0,67,0.00,,,0.01,0,Wunderground v.1.15,2013-02-25 00:44:00,
2013-02-24 19:50:00,39.9,29.5,29.99,East,80,10.0,10.0,66,0.00,,,0.01,0,Wunderground v.1.15,2013-02-25 00:50:00,
2013-02-24 20:00:00,39.7,28.9,30.00,ENE,59,8.0,10.0,65,0.00,,,0.01,0,Wunderground v.1.15,2013-02-25 01:00:00,
2013-02-24 20:10:00,39.6,27.6,30.00,NE,46,10.0,10.0,62,0.00,,,0.01,0,Wunderground v.1.15,2013-02-25 01:10:00,
2013-02-24 20:19:00,39.4,27.8,30.00,NE,50,9.0,9.0,63,0.00,,,0.01,0,Wunderground v.1.15,2013-02-25 01:19:00,
2013-02-24 20:25:00,39.3,28.1,30.00,ENE,73,8.0,9.0,64,0.00,,,0.01,0,Wunderground v.1.15,2013-02-25 01:25:00,
2013-02-24 20:35:00,39.0,28.6,30.00,NE,46,8.0,8.0,66,0.00,,,0.01,0,Wunderground v.1.15,2013-02-25 01:35:00,
2013-02-24 20:45:00,38.8,28.8,30.01,East,90,7.0,11.0,67,0.00,,,0.01,0,Wunderground v.1.15,2013-02-25 01:45:00,
2013-02-24 20:55:00,38.7,27.9,30.01,ENE,57,8.0,10.0,65,0.00,,,0.01,0,Wunderground v.1.15,2013-02-25 01:55:00,
2013-02-24 21:00:00,38.6,27.8,30.02,NE,55,8.0,8.0,65,0.00,,,0.01,0,Wunderground v.1.15,2013-02-25 02:00:00,
2013-02-24 21:09:00,38.5,28.1,30.02,ENE,78,8.0,11.0,66,0.00,,,0.01,0,Wunderground v.1.15,2013-02-25 02:09:00,
2013-02-24 21:15:00,38.4,28.0,30.02,East,82,7.0,11.0,66,0.00,,,0.01,0,Wunderground v.1.15,2013-02-25 02:15:00,
2013-02-24 21:25:00,38.3,27.9,30.03,NE,39,7.0,9.0,66,0.00,,,0.01,0,Wunderground v.1.15,2013-02-25 02:25:00,
2013-02-24 21:34:00,38.2,26.3,30.03,East,81,10.0,10.0,62,0.00,,,0.01,0,Wunderground v.1.15,2013-02-25 02:34:00,
2013-02-24 21:45:00,38.1,26.2,30.04,NNE,33,8.0,13.0,62,0.00,,,0.01,0,Wunderground v.1.15,2013-02-25 02:45:00,
2013-02-24 21:55:00,38.0,25.3,30.04,East,80,11.0,11.0,60,0.00,,,0.01,0,Wunderground v.1.15,2013-02-25 02:55:00,
2013-02-24 22:00:00,37.9,25.2,30.04,ENE,74,10.0,10.0,60,0.00,,,0.01,0,Wunderground v.1.15,2013-02-25 03:00:00,
2013-02-24 22:09:00,37.8,25.1,30.03,ENE,74,9.0,15.0,60,0.00,,,0.01,0,Wunderground v.1.15,2013-02-25 03:09:00,
2013-02-24 22:15:00,37.7,25.1,30.04,East,90,10.0,15.0,60,0.00,,,0.01,0,Wunderground v.1.15,2013-02-25 03:15:00,
2013-02-24 22:20:00,37.7,25.1,30.03,ENE,65,9.0,9.0,60,0.00,,,0.01,0,Wunderground v.1.15,2013-02-25 03:20:00,
2013-02-24 22:29:00,37.5,24.9,30.04,ENE,61,7.0,7.0,60,0.00,,,0.01,0,Wunderground v.1.15,2013-02-25 03:29:00,
2013-02-24 22:35:00,37.3,25.5,30.04,North,355,7.0,10.0,62,0.00,,,0.01,0,Wunderground v.1.15,2013-02-25 03:35:00,
2013-02-24 22:45:00,37.0,26.3,30.04,ENE,57,8.0,14.0,65,0.00,,,0.01,0,Wunderground v.1.15,2013-02-25 03:45:00,
2013-02-24 22:55:00,36.6,26.3,30.04,NE,41,9.0,14.0,66,0.00,,,0.01,0,Wunderground v.1.15,2013-02-25 03:55:00,
2013-02-24 23:00:00,36.5,26.2,30.04,NE,47,8.0,8.0,66,0.00,,,0.01,0,Wunderground v.1.15,2013-02-25 04:00:00,
2013-02-24 23:09:00,36.3,26.0,30.05,NE,46,8.0,11.0,66,0.00,,,0.01,0,Wunderground v.1.15,2013-02-25 04:09:00,
2013-02-24 23:15:00,36.2,25.6,30.05,NNE,31,9.0,11.0,65,0.00,,,0.01,0,Wunderground v.1.15,2013-02-25 04:15:00,
2013-02-24 23:25:00,36.1,25.5,30.05,NE,55,9.0,11.0,65,0.00,,,0.01,0,Wunderground v.1.15,2013-02-25 04:25:00,
2013-02-24 23:35:00,35.9,25.3,30.05,ENE,57,8.0,8.0,65,0.00,,,0.01,0,Wunderground v.1.15,2013-02-25 04:35:00,
2013-02-24 23:44:00,35.7,25.1,30.05,NE,49,8.0,9.0,65,0.00,,,0.01,0,Wunderground v.1.15,2013-02-25 04:44:00,
2013-02-24 23:55:00,35.6,25.0,30.05,NE,50,8.0,8.0,65,0.00,,,0.01,0,Wunderground v.1.15,2013-02-25 04:55:00,